H2SAT (HEINRICH HERTZ)

Last updated on Thu Oct 30 2025 00:02:52 GMT+0000 (Coordinated Universal Time)

1 57213U 23093A 25301.82912450 -.00000069 00000+0 00000+0 0 9991 2 57213 0.0336 225.3793 0001762 66.4383 45.2959 0.99793009 8591
UTC large
Height (km)
Speed (km/s)
/
Latitude / Longitude
Inclination (degrees)
Orbital Period (minutes)
Azimuth
Elevation
Range (km)
Doppler Factor

Next 0 passes for location: London (51.5072 / 0.1276)

Sorry there are no passes over London.